DAL625 LKTB-LKTB

Flight info

Callsign DAL625
Flight time 0h 55m
Altitude 1500
Route VFR CIRCUITS
Aircraft C152/L-V/N

Departure

Time 2026-04-29 17:42
Airport Brno-Tuřany Airport (LKTB)

Arrival

Time 2026-04-29 18:38
Airport Brno-Tuřany Airport (LKTB)
Time Latitude Longitude Altitude Speed Heading
2026-04-29 17:28 49.15406 16.68942 775 ft 0 kts
2026-04-29 17:36 49.15396 16.68940 775 ft 3 kts
2026-04-29 17:36 49.15381 16.68949 774 ft 2 kts 335°
2026-04-29 17:36 49.15366 16.68960 773 ft 2 kts 311°
2026-04-29 17:36 49.15364 16.68963 773 ft 0 kts 284°
2026-04-29 17:37 49.15366 16.68945 773 ft 2 kts 275°
2026-04-29 17:37 49.15367 16.68891 773 ft 10 kts 273°
2026-04-29 17:37 49.15381 16.68741 774 ft 16 kts 279°
2026-04-29 17:37 49.15394 16.68583 776 ft 15 kts 275°
2026-04-29 17:38 49.15310 16.68507 769 ft 19 kts 188°
2026-04-29 17:38 49.15288 16.68502 768 ft 0 kts 189°
2026-04-29 17:39 49.15282 16.68500 768 ft 6 kts 187°
2026-04-29 17:39 49.15206 16.68520 766 ft 16 kts 122°
2026-04-29 17:40 49.15184 16.68686 766 ft 16 kts 92°
2026-04-29 17:40 49.15165 16.69029 771 ft 56 kts 98°
2026-04-29 17:40 49.15099 16.69777 860 ft 77 kts 97°
2026-04-29 17:40 49.15028 16.70605 1009 ft 82 kts 97°
2026-04-29 17:41 49.15003 16.71475 1113 ft 89 kts 91°
2026-04-29 17:41 49.14995 16.71818 1131 ft 92 kts 94°
2026-04-29 17:41 49.14957 16.72820 1206 ft 94 kts 85°
2026-04-29 17:42 49.15389 16.73481 1271 ft 97 kts 18°
2026-04-29 17:42 49.16027 16.73815 1365 ft 99 kts 17°
2026-04-29 17:42 49.16699 16.74048 1473 ft 99 kts
2026-04-29 17:42 49.17207 16.73579 1518 ft 101 kts 278°
2026-04-29 17:43 49.17180 16.72477 1491 ft 107 kts 265°
2026-04-29 17:43 49.17118 16.71332 1471 ft 108 kts 265°
2026-04-29 17:43 49.17054 16.70214 1506 ft 105 kts 264°
2026-04-29 17:43 49.16989 16.69155 1559 ft 104 kts 265°
2026-04-29 17:44 49.16895 16.68002 1488 ft 110 kts 262°
2026-04-29 17:44 49.16832 16.66840 1447 ft 110 kts 267°
2026-04-29 17:44 49.16812 16.65672 1403 ft 110 kts 271°
2026-04-29 17:44 49.16798 16.64515 1364 ft 104 kts 268°
2026-04-29 17:45 49.16727 16.63463 1312 ft 94 kts 251°
2026-04-29 17:45 49.16281 16.62762 1234 ft 91 kts 200°
2026-04-29 17:45 49.15714 16.62964 1261 ft 86 kts 134°
2026-04-29 17:45 49.15571 16.63852 1143 ft 92 kts 96°
2026-04-29 17:46 49.15499 16.64833 1075 ft 91 kts 95°
2026-04-29 17:46 49.15444 16.65790 981 ft 91 kts 97°
2026-04-29 17:46 49.15365 16.66740 888 ft 89 kts 97°
2026-04-29 17:46 49.15285 16.67665 809 ft 87 kts 99°
2026-04-29 17:47 49.15202 16.68556 768 ft 80 kts 98°
2026-04-29 17:47 49.15135 16.69349 774 ft 83 kts 97°
2026-04-29 17:47 49.15059 16.70307 821 ft 94 kts 97°
2026-04-29 17:47 49.14959 16.71305 886 ft 97 kts 99°
2026-04-29 17:48 49.14852 16.72314 1008 ft 94 kts 101°
2026-04-29 17:48 49.14739 16.73308 1135 ft 95 kts 101°
2026-04-29 17:48 49.14622 16.73940 1246 ft 93 kts 120°
2026-04-29 17:48 49.14067 16.74272 1309 ft 99 kts 200°
2026-04-29 17:49 49.13419 16.74015 1413 ft 97 kts 187°
2026-04-29 17:49 49.12724 16.73886 1431 ft 105 kts 189°
2026-04-29 17:49 49.12093 16.73462 1438 ft 102 kts 244°
2026-04-29 17:49 49.12120 16.72453 1466 ft 95 kts 285°
2026-04-29 17:50 49.12301 16.71450 1436 ft 98 kts 284°
2026-04-29 17:50 49.12442 16.70445 1460 ft 95 kts 280°
2026-04-29 17:50 49.12454 16.69444 1484 ft 95 kts 268°
2026-04-29 17:50 49.12430 16.68445 1505 ft 93 kts 267°
2026-04-29 17:51 49.12395 16.67471 1558 ft 91 kts 268°
2026-04-29 17:51 49.12380 16.66501 1619 ft 89 kts 268°
2026-04-29 17:51 49.12355 16.65574 1684 ft 89 kts 270°
2026-04-29 17:51 49.12356 16.64583 1683 ft 93 kts 270°
2026-04-29 17:52 49.12477 16.63662 1709 ft 95 kts 315°
2026-04-29 17:52 49.13120 16.63510 1702 ft 96 kts 12°
2026-04-29 17:52 49.13814 16.63630 1586 ft 97 kts
2026-04-29 17:52 49.14440 16.63721 1483 ft 87 kts
2026-04-29 17:53 49.14989 16.63976 1415 ft 80 kts 47°
2026-04-29 17:53 49.15262 16.64756 1242 ft 86 kts 67°
2026-04-29 17:53 49.15398 16.65673 1044 ft 90 kts 87°
2026-04-29 17:53 49.15372 16.66609 907 ft 87 kts 96°
2026-04-29 17:54 49.15300 16.67494 812 ft 81 kts 98°
2026-04-29 17:54 49.15221 16.68319 768 ft 75 kts 100°
2026-04-29 17:54 49.15158 16.69105 775 ft 81 kts 98°
2026-04-29 17:54 49.15079 16.70031 848 ft 91 kts 96°
2026-04-29 17:55 49.15011 16.71015 945 ft 93 kts 95°
2026-04-29 17:55 49.14868 16.71947 1066 ft 91 kts 131°
2026-04-29 17:55 49.14262 16.72141 1216 ft 86 kts 185°
2026-04-29 17:55 49.13661 16.72025 1350 ft 91 kts 194°
2026-04-29 17:56 49.13044 16.71751 1468 ft 94 kts 199°
2026-04-29 17:56 49.12417 16.71412 1573 ft 94 kts 208°
2026-04-29 17:56 49.12204 16.70558 1634 ft 99 kts 277°
2026-04-29 17:56 49.12335 16.69491 1662 ft 103 kts 282°
2026-04-29 17:57 49.12496 16.68426 1704 ft 102 kts 284°
2026-04-29 17:57 49.12637 16.67355 1724 ft 104 kts 279°
2026-04-29 17:57 49.12759 16.66268 1775 ft 103 kts 278°
2026-04-29 17:57 49.12847 16.65179 1819 ft 103 kts 276°
2026-04-29 17:58 49.12908 16.64092 1862 ft 103 kts 276°
2026-04-29 17:58 49.12988 16.63002 1914 ft 104 kts 277°
2026-04-29 17:58 49.13083 16.61906 1959 ft 104 kts 277°
2026-04-29 17:58 49.13176 16.60810 2000 ft 104 kts 285°
2026-04-29 17:59 49.13698 16.60119 2016 ft 106 kts 348°
2026-04-29 17:59 49.14428 16.60199 2047 ft 106 kts 10°
2026-04-29 17:59 49.15147 16.60451 2106 ft 106 kts 12°
2026-04-29 17:59 49.15750 16.60910 2174 ft 85 kts 45°
2026-04-29 18:00 49.15848 16.61795 1928 ft 99 kts 101°
2026-04-29 18:00 49.15724 16.62891 1567 ft 106 kts 98°
2026-04-29 18:00 49.15609 16.63936 1369 ft 93 kts 99°
2026-04-29 18:00 49.15530 16.64856 1219 ft 83 kts 99°
2026-04-29 18:01 49.15435 16.65698 1064 ft 80 kts 98°
2026-04-29 18:01 49.15387 16.66522 956 ft 73 kts 98°
2026-04-29 18:01 49.15318 16.67256 849 ft 70 kts 98°
2026-04-29 18:01 49.15250 16.68025 793 ft 73 kts 98°
2026-04-29 18:02 49.15180 16.68785 769 ft 70 kts 99°
2026-04-29 18:02 49.15116 16.69493 778 ft 77 kts 100°
2026-04-29 18:02 49.15031 16.70394 848 ft 92 kts 97°
2026-04-29 18:02 49.14955 16.71379 970 ft 95 kts 98°
2026-04-29 18:03 49.14877 16.72384 1118 ft 94 kts 96°
2026-04-29 18:03 49.14806 16.73362 1257 ft 94 kts 96°
2026-04-29 18:03 49.14745 16.74353 1426 ft 92 kts 96°
2026-04-29 18:03 49.14682 16.75314 1612 ft 89 kts 104°
2026-04-29 18:04 49.14164 16.75819 1626 ft 101 kts 181°
2026-04-29 18:04 49.13469 16.75761 1741 ft 99 kts 184°
2026-04-29 18:04 49.12775 16.75699 1798 ft 102 kts 185°
2026-04-29 18:04 49.12054 16.75592 1830 ft 105 kts 189°
2026-04-29 18:05 49.11346 16.75379 1905 ft 104 kts 194°
2026-04-29 18:05 49.10639 16.75155 1980 ft 101 kts 203°
2026-04-29 18:05 49.10430 16.74221 1955 ft 105 kts 277°
2026-04-29 18:05 49.10522 16.73093 1898 ft 108 kts 274°
2026-04-29 18:06 49.10574 16.71959 1882 ft 108 kts 276°
2026-04-29 18:06 49.10663 16.70820 1863 ft 108 kts 278°
2026-04-29 18:06 49.10758 16.69684 1851 ft 107 kts 277°
2026-04-29 18:06 49.10843 16.68567 1875 ft 105 kts 276°
2026-04-29 18:07 49.10899 16.67444 1886 ft 107 kts 273°
2026-04-29 18:07 49.10939 16.66300 1854 ft 107 kts 272°
2026-04-29 18:07 49.10983 16.65171 1866 ft 106 kts 275°
2026-04-29 18:07 49.11058 16.64064 1903 ft 104 kts 277°
2026-04-29 18:08 49.11153 16.62957 1945 ft 105 kts 278°
2026-04-29 18:08 49.11279 16.61866 1960 ft 106 kts 281°
2026-04-29 18:08 49.11417 16.60754 2006 ft 105 kts 281°
2026-04-29 18:08 49.11556 16.59673 2027 ft 106 kts 282°
2026-04-29 18:09 49.12069 16.59106 2035 ft 107 kts 19°
2026-04-29 18:09 49.12767 16.59400 2038 ft 107 kts
2026-04-29 18:09 49.13486 16.59626 1963 ft 101 kts 11°
2026-04-29 18:09 49.14139 16.59893 1825 ft 94 kts 16°
2026-04-29 18:10 49.14748 16.60194 1723 ft 90 kts 19°
2026-04-29 18:10 49.15336 16.60534 1614 ft 89 kts 21°
2026-04-29 18:10 49.15785 16.61079 1553 ft 85 kts 75°
2026-04-29 18:10 49.15740 16.61993 1420 ft 87 kts 100°
2026-04-29 18:11 49.15666 16.62919 1299 ft 88 kts 96°
2026-04-29 18:11 49.15579 16.63865 1169 ft 91 kts 95°
2026-04-29 18:11 49.15516 16.64834 1060 ft 92 kts 96°
2026-04-29 18:11 49.15435 16.65796 992 ft 90 kts 97°
2026-04-29 18:12 49.15362 16.66750 899 ft 91 kts 99°
2026-04-29 18:12 49.15277 16.67689 806 ft 87 kts 98°
2026-04-29 18:12 49.15201 16.68582 767 ft 82 kts 98°
2026-04-29 18:12 49.15132 16.69422 776 ft 86 kts 96°
2026-04-29 18:13 49.15051 16.70391 818 ft 95 kts 98°
2026-04-29 18:13 49.14998 16.71401 897 ft 96 kts 96°
2026-04-29 18:13 49.14934 16.72432 945 ft 99 kts 96°
2026-04-29 18:13 49.14860 16.73433 1082 ft 92 kts 96°
2026-04-29 18:14 49.14833 16.74401 1237 ft 89 kts 91°
2026-04-29 18:14 49.14828 16.75311 1443 ft 86 kts 90°
2026-04-29 18:14 49.14856 16.76249 1545 ft 88 kts 85°
2026-04-29 18:14 49.14934 16.77176 1625 ft 88 kts 81°
2026-04-29 18:15 49.15329 16.77755 1631 ft 90 kts
2026-04-29 18:15 49.15938 16.77878 1677 ft 91 kts
2026-04-29 18:15 49.16581 16.78010 1707 ft 94 kts
2026-04-29 18:15 49.17233 16.78153 1737 ft 95 kts
2026-04-29 18:16 49.17885 16.78261 1790 ft 94 kts
2026-04-29 18:16 49.18541 16.78344 1816 ft 95 kts
2026-04-29 18:16 49.19178 16.78240 1849 ft 92 kts 331°
2026-04-29 18:16 49.19563 16.77478 1845 ft 94 kts 283°
2026-04-29 18:17 49.19584 16.76493 1874 ft 92 kts 268°
2026-04-29 18:17 49.19570 16.75521 1917 ft 92 kts 270°
2026-04-29 18:17 49.19572 16.74523 1946 ft 95 kts 271°
2026-04-29 18:17 49.19572 16.73507 1988 ft 96 kts 270°
2026-04-29 18:18 49.19625 16.72503 2040 ft 95 kts 274°
2026-04-29 18:18 49.19654 16.71481 2062 ft 96 kts 272°
2026-04-29 18:18 49.19673 16.70472 2056 ft 99 kts 274°
2026-04-29 18:18 49.19719 16.69426 2066 ft 100 kts 275°
2026-04-29 18:19 49.19772 16.68361 2047 ft 102 kts 275°
2026-04-29 18:19 49.19840 16.67269 1997 ft 104 kts 277°
2026-04-29 18:19 49.19927 16.66172 1970 ft 104 kts 277°
2026-04-29 18:19 49.19994 16.65081 1938 ft 103 kts 274°
2026-04-29 18:20 49.20037 16.63985 1909 ft 103 kts 273°
2026-04-29 18:20 49.20084 16.62890 1889 ft 103 kts 273°
2026-04-29 18:20 49.20080 16.61820 1896 ft 99 kts 252°
2026-04-29 18:20 49.19501 16.61330 1821 ft 107 kts 187°
2026-04-29 18:21 49.18771 16.61251 1799 ft 104 kts 184°
2026-04-29 18:21 49.18068 16.61235 1746 ft 99 kts 182°
2026-04-29 18:21 49.17379 16.61229 1674 ft 98 kts 181°
2026-04-29 18:21 49.16721 16.61230 1653 ft 94 kts 181°
2026-04-29 18:22 49.16097 16.61331 1596 ft 90 kts 153°
2026-04-29 18:22 49.15761 16.62129 1396 ft 97 kts 103°
2026-04-29 18:22 49.15655 16.63156 1232 ft 97 kts 99°
2026-04-29 18:22 49.15568 16.64154 1106 ft 93 kts 96°
2026-04-29 18:23 49.15504 16.65093 1046 ft 85 kts 97°
2026-04-29 18:23 49.15425 16.65976 988 ft 82 kts 97°
2026-04-29 18:23 49.15369 16.66786 916 ft 75 kts 97°
2026-04-29 18:23 49.15299 16.67565 814 ft 73 kts 98°
2026-04-29 18:24 49.15232 16.68311 768 ft 68 kts 99°
2026-04-29 18:24 49.15166 16.69019 771 ft 73 kts 98°
2026-04-29 18:24 49.15104 16.69817 819 ft 77 kts 96°
2026-04-29 18:24 49.15029 16.70621 862 ft 77 kts 99°
2026-04-29 18:25 49.14956 16.71432 932 ft 76 kts 96°
2026-04-29 18:25 49.14885 16.72268 998 ft 87 kts 98°
2026-04-29 18:25 49.14819 16.73216 1137 ft 90 kts 95°
2026-04-29 18:25 49.14789 16.74156 1338 ft 87 kts 91°
2026-04-29 18:26 49.14492 16.74902 1373 ft 99 kts 167°
2026-04-29 18:26 49.13789 16.74858 1411 ft 102 kts 185°
2026-04-29 18:26 49.13080 16.74750 1481 ft 102 kts 186°
2026-04-29 18:26 49.12365 16.74648 1527 ft 105 kts 187°
2026-04-29 18:27 49.11637 16.74546 1556 ft 106 kts 185°
2026-04-29 18:27 49.10898 16.74524 1569 ft 107 kts 176°
2026-04-29 18:27 49.10139 16.74518 1502 ft 111 kts 186°
2026-04-29 18:27 49.09403 16.74376 1632 ft 100 kts 194°
2026-04-29 18:28 49.09276 16.74330 1679 ft 98 kts 196°
2026-04-29 18:29 49.09155 16.74279 1678 ft 98 kts 199°
2026-04-29 18:29 49.08937 16.73443 1670 ft 106 kts 298°
2026-04-29 18:30 49.09467 16.72677 1601 ft 107 kts 297°
2026-04-29 18:30 49.09629 16.71544 1546 ft 108 kts 279°
2026-04-29 18:30 49.09739 16.70417 1539 ft 108 kts 278°
2026-04-29 18:30 49.09749 16.70308 1542 ft 108 kts 278°
2026-04-29 18:31 49.09801 16.69753 1534 ft 108 kts 278°
2026-04-29 18:31 49.09903 16.68598 1470 ft 111 kts 277°
2026-04-29 18:31 49.10022 16.67445 1484 ft 107 kts 279°
2026-04-29 18:32 49.10118 16.66318 1423 ft 108 kts 277°
2026-04-29 18:32 49.10204 16.64094 1440 ft 101 kts 270°
2026-04-29 18:32 49.10214 16.63025 1486 ft 100 kts 272°
2026-04-29 18:33 49.10250 16.61969 1510 ft 100 kts 275°
2026-04-29 18:33 49.10295 16.60899 1527 ft 101 kts 273°
2026-04-29 18:33 49.10440 16.59893 1558 ft 98 kts 316°
2026-04-29 18:33 49.11098 16.59676 1552 ft 99 kts 359°
2026-04-29 18:34 49.11777 16.59774 1555 ft 97 kts
2026-04-29 18:34 49.12002 16.59823 1571 ft 95 kts
2026-04-29 18:34 49.13042 16.60230 1644 ft 88 kts 13°
2026-04-29 18:34 49.13650 16.60384 1672 ft 91 kts
2026-04-29 18:35 49.14291 16.60513 1661 ft 94 kts
2026-04-29 18:35 49.14938 16.60600 1689 ft 93 kts
2026-04-29 18:35 49.15576 16.60810 1698 ft 94 kts 30°
2026-04-29 18:35 49.15743 16.61780 1541 ft 103 kts 86°
2026-04-29 18:36 49.15716 16.62484 1452 ft 99 kts 97°
2026-04-29 18:36 49.15642 16.63532 1298 ft 99 kts 98°
2026-04-29 18:36 49.15561 16.64563 1196 ft 95 kts 97°
2026-04-29 18:36 49.15476 16.65563 1080 ft 91 kts 98°
2026-04-29 18:37 49.15402 16.66461 963 ft 84 kts 98°
2026-04-29 18:37 49.15319 16.67352 834 ft 84 kts 99°
2026-04-29 18:37 49.15242 16.68216 770 ft 81 kts 99°
2026-04-29 18:37 49.15169 16.68977 771 ft 62 kts 99°
2026-04-29 18:38 49.15116 16.69548 776 ft 44 kts 97°
2026-04-29 18:38 49.15131 16.69858 770 ft 7 kts 22°
2026-04-29 18:38 49.15172 16.69844 772 ft 6 kts
2026-04-29 18:38 49.15216 16.69854 773 ft 8 kts
2026-04-29 18:39 49.15239 16.69856 773 ft 0 kts
2026-04-29 18:39 49.15256 16.69853 773 ft 7 kts 344°
2026-04-29 18:39 49.15288 16.69766 773 ft 14 kts 273°
2026-04-29 18:40 49.15301 16.69595 773 ft 18 kts 281°
2026-04-29 18:40 49.15323 16.69409 774 ft 18 kts 276°
2026-04-29 18:40 49.15338 16.69222 774 ft 18 kts 279°
2026-04-29 18:40 49.15355 16.69037 774 ft 18 kts 279°
2026-04-29 18:41 49.15411 16.68688 777 ft 3 kts 44°
2026-04-29 18:41 49.15427 16.68729 777 ft 7 kts 59°
2026-04-29 18:42 49.15461 16.68792 780 ft 6 kts
2026-04-29 18:42 49.15496 16.68790 784 ft 8 kts 352°
2026-04-29 18:42 49.15550 16.68780 788 ft 6 kts 354°
2026-04-29 18:42 49.15581 16.68745 791 ft 4 kts 267°
2026-04-29 18:43 49.15581 16.68722 790 ft 0 kts 270°